owner,sensor,date,latitude,longitude,relative_humidity,qcFlag 
DISL,ioos:station:DISL:KATA:1,2011-11-01T00:00:00Z,30.2583,-88.2131,58.14,1111122 
DISL,ioos:station:DISL:KATA:1,2011-11-01T00:30:00Z,30.2583,-88.2131,65.21,1111122 
DISL,ioos:station:DISL:KATA:1,2011-11-01T01:00:00Z,30.2583,-88.2131,64.22,1111122 
DISL,ioos:station:DISL:KATA:1,2011-11-01T01:30:00Z,30.2583,-88.2131,63.37,1111122 
DISL,ioos:station:DISL:KATA:1,2011-11-01T02:00:00Z,30.2583,-88.2131,59.64,1111122 
DISL,ioos:station:DISL:KATA:1,2011-11-01T02:30:00Z,30.2583,-88.2131,58.39,1111122 
DISL,ioos:station:DISL:KATA:1,2011-11-01T03:00:00Z,30.2583,-88.2131,53.63,1111122 
DISL,ioos:station:DISL:KATA:1,2011-11-01T03:30:00Z,30.2583,-88.2131,53.22,1111122 
DISL,ioos:station:DISL:KATA:1,2011-11-01T04:00:00Z,30.2583,-88.2131,55.36,1111122 
DISL,ioos:station:DISL:KATA:1,2011-11-01T04:30:00Z,30.2583,-88.2131,55.67,1111122 
DISL,ioos:station:DISL:KATA:1,2011-11-01T05:00:00Z,30.2583,-88.2131,58.05,1111122 
DISL,ioos:station:DISL:KATA:1,2011-11-01T05:30:00Z,30.2583,-88.2131,63.12,1111122 
DISL,ioos:station:DISL:KATA:1,2011-11-01T06:00:00Z,30.2583,-88.2131,67.4,1111122 
DISL,ioos:station:DISL:KATA:1,2011-11-01T06:30:00Z,30.2583,-88.2131,65.3,1111122 
DISL,ioos:station:DISL:KATA:1,2011-11-01T07:00:00Z,30.2583,-88.2131,64.69,1111122 
DISL,ioos:station:DISL:KATA:1,2011-11-01T07:30:00Z,30.2583,-88.2131,68.22,1111122 
DISL,ioos:station:DISL:KATA:1,2011-11-01T08:00:00Z,30.2583,-88.2131,71.58,1111122 
DISL,ioos:station:DISL:KATA:1,2011-11-01T08:30:00Z,30.2583,-88.2131,73.92,1111122 
DISL,ioos:station:DISL:KATA:1,2011-11-01T09:00:00Z,30.2583,-88.2131,75.04,1111122 
DISL,ioos:station:DISL:KATA:1,2011-11-01T09:30:00Z,30.2583,-88.2131,78.61,1111122 
DISL,ioos:station:DISL:KATA:1,2011-11-01T10:00:00Z,30.2583,-88.2131,73.79,1111122 
DISL,ioos:station:DISL:KATA:1,2011-11-01T10:30:00Z,30.2583,-88.2131,66.04,1111122 
DISL,ioos:station:DISL:KATA:1,2011-11-01T11:00:00Z,30.2583,-88.2131,60.68,1111122 
DISL,ioos:station:DISL:KATA:1,2011-11-01T11:30:00Z,30.2583,-88.2131,64.01,1111122 
DISL,ioos:station:DISL:KATA:1,2011-11-01T12:00:00Z,30.2583,-88.2131,65.81,1111122 
DISL,ioos:station:DISL:KATA:1,2011-11-01T12:30:00Z,30.2583,-88.2131,69.47,1111122 
DISL,ioos:station:DISL:KATA:1,2011-11-01T13:00:00Z,30.2583,-88.2131,66.25,1111122 
DISL,ioos:station:DISL:KATA:1,2011-11-01T13:30:00Z,30.2583,-88.2131,64.64,1111122 
DISL,ioos:station:DISL:KATA:1,2011-11-01T14:00:00Z,30.2583,-88.2131,65.69,1111122 
DISL,ioos:station:DISL:KATA:1,2011-11-01T14:30:00Z,30.2583,-88.2131,66.84,1111122 
DISL,ioos:station:DISL:KATA:1,2011-11-01T15:00:00Z,30.2583,-88.2131,64.73,1111122 
DISL,ioos:station:DISL:KATA:1,2011-11-01T15:30:00Z,30.2583,-88.2131,63.88,1111122 
DISL,ioos:station:DISL:KATA:1,2011-11-01T16:00:00Z,30.2583,-88.2131,62.97,1111122 
DISL,ioos:station:DISL:KATA:1,2011-11-01T16:30:00Z,30.2583,-88.2131,61.53,1111122 
DISL,ioos:station:DISL:KATA:1,2011-11-01T17:00:00Z,30.2583,-88.2131,56.27,1111122 
DISL,ioos:station:DISL:KATA:1,2011-11-01T17:30:00Z,30.2583,-88.2131,53.66,1111122 
DISL,ioos:station:DISL:KATA:1,2011-11-01T18:00:00Z,30.2583,-88.2131,53.21,1111122 
DISL,ioos:station:DISL:KATA:1,2011-11-01T18:30:00Z,30.2583,-88.2131,55.82,1111122 
DISL,ioos:station:DISL:KATA:1,2011-11-01T19:00:00Z,30.2583,-88.2131,53.51,1111122 
DISL,ioos:station:DISL:KATA:1,2011-11-01T19:30:00Z,30.2583,-88.2131,53.15,1111122 
DISL,ioos:station:DISL:KATA:1,2011-11-01T20:00:00Z,30.2583,-88.2131,57.87,1111122 
DISL,ioos:station:DISL:KATA:1,2011-11-01T20:30:00Z,30.2583,-88.2131,55.8,1111122 
DISL,ioos:station:DISL:KATA:1,2011-11-01T21:00:00Z,30.2583,-88.2131,52.81,1111122 
DISL,ioos:station:DISL:KATA:1,2011-11-01T21:30:00Z,30.2583,-88.2131,54.13,1111122 
DISL,ioos:station:DISL:KATA:1,2011-11-01T22:00:00Z,30.2583,-88.2131,50.64,1111122 
DISL,ioos:station:DISL:KATA:1,2011-11-01T22:30:00Z,30.2583,-88.2131,50.74,1111122 
DISL,ioos:station:DISL:KATA:1,2011-11-01T23:00:00Z,30.2583,-88.2131,48.16,1111122 
DISL,ioos:station:DISL:KATA:1,2011-11-01T23:30:00Z,30.2583,-88.2131,50.47,1111122 
DISL,ioos:station:DISL:KATA:1,2011-11-02T00:00:00Z,30.2583,-88.2131,53.42,1111122 
DISL,ioos:station:DISL:KATA:1,2011-11-02T00:30:00Z,30.2583,-88.2131,60.45,1111122 
DISL,ioos:station:DISL:KATA:1,2011-11-02T01:00:00Z,30.2583,-88.2131,65.14,1111122 
DISL,ioos:station:DISL:KATA:1,2011-11-02T01:30:00Z,30.2583,-88.2131,65.55,1111122 
DISL,ioos:station:DISL:KATA:1,2011-11-02T02:00:00Z,30.2583,-88.2131,68.43,1111122 
DISL,ioos:station:DISL:KATA:1,2011-11-02T02:30:00Z,30.2583,-88.2131,72.88,1111122 
DISL,ioos:station:DISL:KATA:1,2011-11-02T03:00:00Z,30.2583,-88.2131,78.68,1111122 
DISL,ioos:station:DISL:KATA:1,2011-11-02T03:30:00Z,30.2583,-88.2131,77.8,1111122 
DISL,ioos:station:DISL:KATA:1,2011-11-02T04:00:00Z,30.2583,-88.2131,78.85,1111122 
DISL,ioos:station:DISL:KATA:1,2011-11-02T04:30:00Z,30.2583,-88.2131,79.19,1111122 
DISL,ioos:station:DISL:KATA:1,2011-11-02T05:00:00Z,30.2583,-88.2131,82.4,1111122 
DISL,ioos:station:DISL:KATA:1,2011-11-02T05:30:00Z,30.2583,-88.2131,82.4,1111122 
DISL,ioos:station:DISL:KATA:1,2011-11-02T06:00:00Z,30.2583,-88.2131,81.6,1111122 
DISL,ioos:station:DISL:KATA:1,2011-11-02T06:30:00Z,30.2583,-88.2131,74.58,1111122 
DISL,ioos:station:DISL:KATA:1,2011-11-02T07:00:00Z,30.2583,-88.2131,68.74,1111122 
DISL,ioos:station:DISL:KATA:1,2011-11-02T07:30:00Z,30.2583,-88.2131,70.3,1111122 
DISL,ioos:station:DISL:KATA:1,2011-11-02T08:00:00Z,30.2583,-88.2131,70.13,1111122 
DISL,ioos:station:DISL:KATA:1,2011-11-02T08:30:00Z,30.2583,-88.2131,70.26,1111122 
DISL,ioos:station:DISL:KATA:1,2011-11-02T09:00:00Z,30.2583,-88.2131,75.09,1111122 
DISL,ioos:station:DISL:KATA:1,2011-11-02T09:30:00Z,30.2583,-88.2131,74.75,1111122 
DISL,ioos:station:DISL:KATA:1,2011-11-02T10:00:00Z,30.2583,-88.2131,76.14,1111122 
DISL,ioos:station:DISL:KATA:1,2011-11-02T10:30:00Z,30.2583,-88.2131,75.32,1111122 
DISL,ioos:station:DISL:KATA:1,2011-11-02T11:00:00Z,30.2583,-88.2131,76.24,1111122 
DISL,ioos:station:DISL:KATA:1,2011-11-02T11:30:00Z,30.2583,-88.2131,76.04,1111122 
DISL,ioos:station:DISL:KATA:1,2011-11-02T12:00:00Z,30.2583,-88.2131,77.84,1111122 
DISL,ioos:station:DISL:KATA:1,2011-11-02T12:30:00Z,30.2583,-88.2131,76.8,1111122 
DISL,ioos:station:DISL:KATA:1,2011-11-02T13:00:00Z,30.2583,-88.2131,74.86,1111122 
DISL,ioos:station:DISL:KATA:1,2011-11-02T13:30:00Z,30.2583,-88.2131,73.83,1111122 
DISL,ioos:station:DISL:KATA:1,2011-11-02T14:00:00Z,30.2583,-88.2131,77.97,1111122 
DISL,ioos:station:DISL:KATA:1,2011-11-02T14:30:00Z,30.2583,-88.2131,76.0,1111122 
DISL,ioos:station:DISL:KATA:1,2011-11-02T15:00:00Z,30.2583,-88.2131,75.19,1111122 
DISL,ioos:station:DISL:KATA:1,2011-11-02T15:30:00Z,30.2583,-88.2131,70.2,1111122 
DISL,ioos:station:DISL:KATA:1,2011-11-02T16:00:00Z,30.2583,-88.2131,69.14,1111122 
DISL,ioos:station:DISL:KATA:1,2011-11-02T16:30:00Z,30.2583,-88.2131,70.97,1111122 
DISL,ioos:station:DISL:KATA:1,2011-11-02T17:00:00Z,30.2583,-88.2131,73.91,1111122 
DISL,ioos:station:DISL:KATA:1,2011-11-02T17:30:00Z,30.2583,-88.2131,73.3,1111122 
DISL,ioos:station:DISL:KATA:1,2011-11-02T18:00:00Z,30.2583,-88.2131,72.01,1111122 
DISL,ioos:station:DISL:KATA:1,2011-11-02T18:30:00Z,30.2583,-88.2131,72.18,1111122 
DISL,ioos:station:DISL:KATA:1,2011-11-02T19:00:00Z,30.2583,-88.2131,73.77,1111122 
DISL,ioos:station:DISL:KATA:1,2011-11-02T19:30:00Z,30.2583,-88.2131,75.98,1111122 
DISL,ioos:station:DISL:KATA:1,2011-11-02T20:00:00Z,30.2583,-88.2131,75.71,1111122 
DISL,ioos:station:DISL:KATA:1,2011-11-02T20:30:00Z,30.2583,-88.2131,77.85,1111122 
DISL,ioos:station:DISL:KATA:1,2011-11-02T21:00:00Z,30.2583,-88.2131,77.51,1111122 
DISL,ioos:station:DISL:KATA:1,2011-11-02T21:30:00Z,30.2583,-88.2131,74.38,1111122 
DISL,ioos:station:DISL:KATA:1,2011-11-02T22:00:00Z,30.2583,-88.2131,75.2,1111122 
DISL,ioos:station:DISL:KATA:1,2011-11-02T22:30:00Z,30.2583,-88.2131,76.15,1111122 
DISL,ioos:station:DISL:KATA:1,2011-11-02T23:00:00Z,30.2583,-88.2131,76.66,1111122 
DISL,ioos:station:DISL:KATA:1,2011-11-02T23:30:00Z,30.2583,-88.2131,78.3,1111122 
DISL,ioos:station:DISL:KATA:1,2011-11-03T00:00:00Z,30.2583,-88.2131,79.28,1111122 
DISL,ioos:station:DISL:KATA:1,2011-11-03T00:30:00Z,30.2583,-88.2131,79.35,1111122 
DISL,ioos:station:DISL:KATA:1,2011-11-03T01:00:00Z,30.2583,-88.2131,78.74,1111122 
DISL,ioos:station:DISL:KATA:1,2011-11-03T01:30:00Z,30.2583,-88.2131,79.01,1111122 
DISL,ioos:station:DISL:KATA:1,2011-11-03T02:00:00Z,30.2583,-88.2131,80.6,1111122 
DISL,ioos:station:DISL:KATA:1,2011-11-03T02:30:00Z,30.2583,-88.2131,81.8,1111122 
DISL,ioos:station:DISL:KATA:1,2011-11-03T03:00:00Z,30.2583,-88.2131,83.3,1111122 
DISL,ioos:station:DISL:KATA:1,2011-11-03T03:30:00Z,30.2583,-88.2131,85.7,1111122 
DISL,ioos:station:DISL:KATA:1,2011-11-03T04:00:00Z,30.2583,-88.2131,85.1,1111122 
DISL,ioos:station:DISL:KATA:1,2011-11-03T04:30:00Z,30.2583,-88.2131,77.36,1111122 
DISL,ioos:station:DISL:KATA:1,2011-11-03T05:00:00Z,30.2583,-88.2131,74.29,1111122 
DISL,ioos:station:DISL:KATA:1,2011-11-03T05:30:00Z,30.2583,-88.2131,74.02,1111122 
DISL,ioos:station:DISL:KATA:1,2011-11-03T06:00:00Z,30.2583,-88.2131,74.56,1111122 
DISL,ioos:station:DISL:KATA:1,2011-11-03T06:30:00Z,30.2583,-88.2131,77.06,1111122 
DISL,ioos:station:DISL:KATA:1,2011-11-03T07:00:00Z,30.2583,-88.2131,76.28,1111122 
DISL,ioos:station:DISL:KATA:1,2011-11-03T07:30:00Z,30.2583,-88.2131,75.33,1111122 
DISL,ioos:station:DISL:KATA:1,2011-11-03T08:00:00Z,30.2583,-88.2131,74.35,1111122 
DISL,ioos:station:DISL:KATA:1,2011-11-03T08:30:00Z,30.2583,-88.2131,73.91,1111122 
DISL,ioos:station:DISL:KATA:1,2011-11-03T09:00:00Z,30.2583,-88.2131,75.47,1111122 
DISL,ioos:station:DISL:KATA:1,2011-11-03T09:30:00Z,30.2583,-88.2131,74.62,1111122 
DISL,ioos:station:DISL:KATA:1,2011-11-03T10:00:00Z,30.2583,-88.2131,76.21,1111122 
DISL,ioos:station:DISL:KATA:1,2011-11-03T10:30:00Z,30.2583,-88.2131,75.57,1111122 
DISL,ioos:station:DISL:KATA:1,2011-11-03T11:00:00Z,30.2583,-88.2131,75.53,1111122 
DISL,ioos:station:DISL:KATA:1,2011-11-03T11:30:00Z,30.2583,-88.2131,76.18,1111122 
DISL,ioos:station:DISL:KATA:1,2011-11-03T12:00:00Z,30.2583,-88.2131,77.43,1111122 
DISL,ioos:station:DISL:KATA:1,2011-11-03T12:30:00Z,30.2583,-88.2131,77.77,1111122 
DISL,ioos:station:DISL:KATA:1,2011-11-03T13:00:00Z,30.2583,-88.2131,77.5,1111122 
DISL,ioos:station:DISL:KATA:1,2011-11-03T13:30:00Z,30.2583,-88.2131,74.54,1111122 
DISL,ioos:station:DISL:KATA:1,2011-11-03T14:00:00Z,30.2583,-88.2131,75.68,1111122 
DISL,ioos:station:DISL:KATA:1,2011-11-03T14:30:00Z,30.2583,-88.2131,77.54,1111122 
DISL,ioos:station:DISL:KATA:1,2011-11-03T15:00:00Z,30.2583,-88.2131,78.83,1111122 
DISL,ioos:station:DISL:KATA:1,2011-11-03T15:30:00Z,30.2583,-88.2131,77.1,1111122 
DISL,ioos:station:DISL:KATA:1,2011-11-03T16:00:00Z,30.2583,-88.2131,80.1,1111122 
DISL,ioos:station:DISL:KATA:1,2011-11-03T16:30:00Z,30.2583,-88.2131,82.8,1111122 
DISL,ioos:station:DISL:KATA:1,2011-11-03T17:00:00Z,30.2583,-88.2131,85.2,1111122 
DISL,ioos:station:DISL:KATA:1,2011-11-03T17:30:00Z,30.2583,-88.2131,83.1,1111122 
DISL,ioos:station:DISL:KATA:1,2011-11-03T18:00:00Z,30.2583,-88.2131,85.0,1111122 
DISL,ioos:station:DISL:KATA:1,2011-11-03T18:30:00Z,30.2583,-88.2131,86.0,1111122 
DISL,ioos:station:DISL:KATA:1,2011-11-03T19:00:00Z,30.2583,-88.2131,85.7,1111122 
DISL,ioos:station:DISL:KATA:1,2011-11-03T19:30:00Z,30.2583,-88.2131,85.7,1111122 
DISL,ioos:station:DISL:KATA:1,2011-11-03T20:00:00Z,30.2583,-88.2131,88.9,1111122 
DISL,ioos:station:DISL:KATA:1,2011-11-03T20:30:00Z,30.2583,-88.2131,88.8,1111122 
DISL,ioos:station:DISL:KATA:1,2011-11-03T21:00:00Z,30.2583,-88.2131,89.0,1111122 
DISL,ioos:station:DISL:KATA:1,2011-11-03T21:30:00Z,30.2583,-88.2131,88.5,1111122 
DISL,ioos:station:DISL:KATA:1,2011-11-03T22:00:00Z,30.2583,-88.2131,84.7,1111122 
DISL,ioos:station:DISL:KATA:1,2011-11-03T22:30:00Z,30.2583,-88.2131,76.61,1111122 
DISL,ioos:station:DISL:KATA:1,2011-11-03T23:00:00Z,30.2583,-88.2131,78.24,1111122 
DISL,ioos:station:DISL:KATA:1,2011-11-03T23:30:00Z,30.2583,-88.2131,78.72,1111122 
DISL,ioos:station:DISL:KATA:1,2011-11-04T00:00:00Z,30.2583,-88.2131,70.52,1111122 
DISL,ioos:station:DISL:KATA:1,2011-11-04T00:30:00Z,30.2583,-88.2131,67.1,1111122 
DISL,ioos:station:DISL:KATA:1,2011-11-04T01:00:00Z,30.2583,-88.2131,70.56,1111122 
DISL,ioos:station:DISL:KATA:1,2011-11-04T01:30:00Z,30.2583,-88.2131,71.14,1111122 
DISL,ioos:station:DISL:KATA:1,2011-11-04T02:00:00Z,30.2583,-88.2131,70.57,1111122 
DISL,ioos:station:DISL:KATA:1,2011-11-04T02:30:00Z,30.2583,-88.2131,77.02,1111122 
DISL,ioos:station:DISL:KATA:1,2011-11-04T03:00:00Z,30.2583,-88.2131,70.78,1111122 
DISL,ioos:station:DISL:KATA:1,2011-11-04T03:30:00Z,30.2583,-88.2131,69.16,1111122 
DISL,ioos:station:DISL:KATA:1,2011-11-04T04:00:00Z,30.2583,-88.2131,72.59,1111122 
DISL,ioos:station:DISL:KATA:1,2011-11-04T04:30:00Z,30.2583,-88.2131,67.09,1111122 
DISL,ioos:station:DISL:KATA:1,2011-11-04T05:00:00Z,30.2583,-88.2131,65.42,1111122 
DISL,ioos:station:DISL:KATA:1,2011-11-04T05:30:00Z,30.2583,-88.2131,70.82,1111122 
DISL,ioos:station:DISL:KATA:1,2011-11-04T06:00:00Z,30.2583,-88.2131,68.21,1111122 
DISL,ioos:station:DISL:KATA:1,2011-11-04T06:30:00Z,30.2583,-88.2131,68.62,1111122 
DISL,ioos:station:DISL:KATA:1,2011-11-04T07:00:00Z,30.2583,-88.2131,67.74,1111122 
DISL,ioos:station:DISL:KATA:1,2011-11-04T07:30:00Z,30.2583,-88.2131,71.41,1111122 
DISL,ioos:station:DISL:KATA:1,2011-11-04T08:00:00Z,30.2583,-88.2131,66.55,1111122 
DISL,ioos:station:DISL:KATA:1,2011-11-04T08:30:00Z,30.2583,-88.2131,69.0,1111122 
DISL,ioos:station:DISL:KATA:1,2011-11-04T09:00:00Z,30.2583,-88.2131,65.23,1111122 
DISL,ioos:station:DISL:KATA:1,2011-11-04T09:30:00Z,30.2583,-88.2131,69.37,1111122 
DISL,ioos:station:DISL:KATA:1,2011-11-04T10:00:00Z,30.2583,-88.2131,71.14,1111122 
DISL,ioos:station:DISL:KATA:1,2011-11-04T10:30:00Z,30.2583,-88.2131,74.57,1111122 
DISL,ioos:station:DISL:KATA:1,2011-11-04T11:00:00Z,30.2583,-88.2131,75.97,1111122 
DISL,ioos:station:DISL:KATA:1,2011-11-04T11:30:00Z,30.2583,-88.2131,72.27,1111122 
DISL,ioos:station:DISL:KATA:1,2011-11-04T12:00:00Z,30.2583,-88.2131,77.51,1111122 
DISL,ioos:station:DISL:KATA:1,2011-11-04T12:30:00Z,30.2583,-88.2131,76.52,1111122 
DISL,ioos:station:DISL:KATA:1,2011-11-04T13:00:00Z,30.2583,-88.2131,78.39,1111122 
DISL,ioos:station:DISL:KATA:1,2011-11-04T13:30:00Z,30.2583,-88.2131,74.5,1111122 
DISL,ioos:station:DISL:KATA:1,2011-11-04T14:00:00Z,30.2583,-88.2131,73.17,1111122 
DISL,ioos:station:DISL:KATA:1,2011-11-04T14:30:00Z,30.2583,-88.2131,75.37,1111122 
DISL,ioos:station:DISL:KATA:1,2011-11-04T15:00:00Z,30.2583,-88.2131,75.31,1111122 
DISL,ioos:station:DISL:KATA:1,2011-11-04T15:30:00Z,30.2583,-88.2131,73.61,1111122 
DISL,ioos:station:DISL:KATA:1,2011-11-04T16:00:00Z,30.2583,-88.2131,72.92,1111122 
DISL,ioos:station:DISL:KATA:1,2011-11-04T16:30:00Z,30.2583,-88.2131,68.6,1111122 
DISL,ioos:station:DISL:KATA:1,2011-11-04T17:00:00Z,30.2583,-88.2131,71.58,1111122 
DISL,ioos:station:DISL:KATA:1,2011-11-04T17:30:00Z,30.2583,-88.2131,70.8,1111122 
DISL,ioos:station:DISL:KATA:1,2011-11-04T18:00:00Z,30.2583,-88.2131,68.12,1111122 
DISL,ioos:station:DISL:KATA:1,2011-11-04T18:30:00Z,30.2583,-88.2131,69.0,1111122 
DISL,ioos:station:DISL:KATA:1,2011-11-04T19:00:00Z,30.2583,-88.2131,62.28,1111122 
DISL,ioos:station:DISL:KATA:1,2011-11-04T19:30:00Z,30.2583,-88.2131,62.89,1111122 
DISL,ioos:station:DISL:KATA:1,2011-11-04T20:00:00Z,30.2583,-88.2131,60.78,1111122 
DISL,ioos:station:DISL:KATA:1,2011-11-04T20:30:00Z,30.2583,-88.2131,60.26,1111122 
DISL,ioos:station:DISL:KATA:1,2011-11-04T21:00:00Z,30.2583,-88.2131,59.2,1111122 
DISL,ioos:station:DISL:KATA:1,2011-11-04T21:30:00Z,30.2583,-88.2131,62.39,1111122 
DISL,ioos:station:DISL:KATA:1,2011-11-04T22:00:00Z,30.2583,-88.2131,59.61,1111122 
DISL,ioos:station:DISL:KATA:1,2011-11-04T22:30:00Z,30.2583,-88.2131,59.37,1111122 
DISL,ioos:station:DISL:KATA:1,2011-11-04T23:00:00Z,30.2583,-88.2131,58.56,1111122 
DISL,ioos:station:DISL:KATA:1,2011-11-04T23:30:00Z,30.2583,-88.2131,62.22,1111122 
DISL,ioos:station:DISL:KATA:1,2011-11-05T00:00:00Z,30.2583,-88.2131,63.01,1111122 
DISL,ioos:station:DISL:KATA:1,2011-11-05T00:30:00Z,30.2583,-88.2131,65.57,1111122 
DISL,ioos:station:DISL:KATA:1,2011-11-05T01:00:00Z,30.2583,-88.2131,67.23,1111122 
DISL,ioos:station:DISL:KATA:1,2011-11-05T01:30:00Z,30.2583,-88.2131,67.81,1111122 
DISL,ioos:station:DISL:KATA:1,2011-11-05T02:00:00Z,30.2583,-88.2131,69.98,1111122 
DISL,ioos:station:DISL:KATA:1,2011-11-05T02:30:00Z,30.2583,-88.2131,71.68,1111122 
DISL,ioos:station:DISL:KATA:1,2011-11-05T03:00:00Z,30.2583,-88.2131,73.38,1111122 
DISL,ioos:station:DISL:KATA:1,2011-11-05T03:30:00Z,30.2583,-88.2131,75.55,1111122 
DISL,ioos:station:DISL:KATA:1,2011-11-05T04:00:00Z,30.2583,-88.2131,75.38,1111122 
DISL,ioos:station:DISL:KATA:1,2011-11-05T04:30:00Z,30.2583,-88.2131,77.09,1111122 
DISL,ioos:station:DISL:KATA:1,2011-11-05T05:00:00Z,30.2583,-88.2131,81.7,1111122 
DISL,ioos:station:DISL:KATA:1,2011-11-05T05:30:00Z,30.2583,-88.2131,80.4,1111122 
DISL,ioos:station:DISL:KATA:1,2011-11-05T06:00:00Z,30.2583,-88.2131,80.5,1111122 
DISL,ioos:station:DISL:KATA:1,2011-11-05T06:30:00Z,30.2583,-88.2131,82.0,1111122 
DISL,ioos:station:DISL:KATA:1,2011-11-05T07:00:00Z,30.2583,-88.2131,83.9,1111122 
DISL,ioos:station:DISL:KATA:1,2011-11-05T07:30:00Z,30.2583,-88.2131,84.0,1111122 
DISL,ioos:station:DISL:KATA:1,2011-11-05T08:00:00Z,30.2583,-88.2131,85.5,1111122 
DISL,ioos:station:DISL:KATA:1,2011-11-05T08:30:00Z,30.2583,-88.2131,86.6,1111122 
DISL,ioos:station:DISL:KATA:1,2011-11-05T09:00:00Z,30.2583,-88.2131,89.8,1111122 
DISL,ioos:station:DISL:KATA:1,2011-11-05T09:30:00Z,30.2583,-88.2131,88.6,1111122 
DISL,ioos:station:DISL:KATA:1,2011-11-05T10:00:00Z,30.2583,-88.2131,90.6,1111122 
DISL,ioos:station:DISL:KATA:1,2011-11-05T10:30:00Z,30.2583,-88.2131,82.6,1111122 
DISL,ioos:station:DISL:KATA:1,2011-11-05T11:00:00Z,30.2583,-88.2131,78.8,1111122 
DISL,ioos:station:DISL:KATA:1,2011-11-05T11:30:00Z,30.2583,-88.2131,79.61,1111122 
DISL,ioos:station:DISL:KATA:1,2011-11-05T12:00:00Z,30.2583,-88.2131,76.75,1111122 
DISL,ioos:station:DISL:KATA:1,2011-11-05T12:30:00Z,30.2583,-88.2131,76.75,1111122 
DISL,ioos:station:DISL:KATA:1,2011-11-05T13:00:00Z,30.2583,-88.2131,73.19,1111122 
DISL,ioos:station:DISL:KATA:1,2011-11-05T13:30:00Z,30.2583,-88.2131,74.57,1111122 
DISL,ioos:station:DISL:KATA:1,2011-11-05T14:00:00Z,30.2583,-88.2131,74.5,1111122 
DISL,ioos:station:DISL:KATA:1,2011-11-05T14:30:00Z,30.2583,-88.2131,72.02,1111122 
DISL,ioos:station:DISL:KATA:1,2011-11-05T15:00:00Z,30.2583,-88.2131,68.43,1111122 
DISL,ioos:station:DISL:KATA:1,2011-11-05T15:30:00Z,30.2583,-88.2131,63.24,1111122 
DISL,ioos:station:DISL:KATA:1,2011-11-05T16:00:00Z,30.2583,-88.2131,61.37,1111122 
DISL,ioos:station:DISL:KATA:1,2011-11-05T16:30:00Z,30.2583,-88.2131,57.67,1111122 
DISL,ioos:station:DISL:KATA:1,2011-11-05T17:00:00Z,30.2583,-88.2131,53.87,1111122 
DISL,ioos:station:DISL:KATA:1,2011-11-05T17:30:00Z,30.2583,-88.2131,52.81,1111122 
DISL,ioos:station:DISL:KATA:1,2011-11-05T18:00:00Z,30.2583,-88.2131,54.5,1111122 
DISL,ioos:station:DISL:KATA:1,2011-11-05T18:30:00Z,30.2583,-88.2131,55.73,1111122 
DISL,ioos:station:DISL:KATA:1,2011-11-05T19:00:00Z,30.2583,-88.2131,63.06,1111122 
DISL,ioos:station:DISL:KATA:1,2011-11-05T19:30:00Z,30.2583,-88.2131,58.2,1111122 
DISL,ioos:station:DISL:KATA:1,2011-11-05T20:00:00Z,30.2583,-88.2131,57.32,1111122 
DISL,ioos:station:DISL:KATA:1,2011-11-05T20:30:00Z,30.2583,-88.2131,58.88,1111122 
DISL,ioos:station:DISL:KATA:1,2011-11-05T21:00:00Z,30.2583,-88.2131,59.49,1111122 
DISL,ioos:station:DISL:KATA:1,2011-11-05T21:30:00Z,30.2583,-88.2131,58.98,1111122 
DISL,ioos:station:DISL:KATA:1,2011-11-05T22:00:00Z,30.2583,-88.2131,58.24,1111122 
DISL,ioos:station:DISL:KATA:1,2011-11-05T22:30:00Z,30.2583,-88.2131,55.79,1111122 
DISL,ioos:station:DISL:KATA:1,2011-11-05T23:00:00Z,30.2583,-88.2131,60.38,1111122 
DISL,ioos:station:DISL:KATA:1,2011-11-05T23:30:00Z,30.2583,-88.2131,57.26,1111122 
DISL,ioos:station:DISL:KATA:1,2011-11-06T00:00:00Z,30.2583,-88.2131,59.16,1111122 
DISL,ioos:station:DISL:KATA:1,2011-11-06T00:30:00Z,30.2583,-88.2131,57.06,1111122 
DISL,ioos:station:DISL:KATA:1,2011-11-06T01:00:00Z,30.2583,-88.2131,61.37,1111122 
DISL,ioos:station:DISL:KATA:1,2011-11-06T01:30:00Z,30.2583,-88.2131,61.24,1111122 
DISL,ioos:station:DISL:KATA:1,2011-11-06T02:00:00Z,30.2583,-88.2131,68.47,1111122 
DISL,ioos:station:DISL:KATA:1,2011-11-06T02:30:00Z,30.2583,-88.2131,72.57,1111122 
DISL,ioos:station:DISL:KATA:1,2011-11-06T03:00:00Z,30.2583,-88.2131,74.58,1111122 
DISL,ioos:station:DISL:KATA:1,2011-11-06T03:30:00Z,30.2583,-88.2131,70.61,1111122 
DISL,ioos:station:DISL:KATA:1,2011-11-06T04:00:00Z,30.2583,-88.2131,66.91,1111122 
DISL,ioos:station:DISL:KATA:1,2011-11-06T04:30:00Z,30.2583,-88.2131,64.36,1111122 
DISL,ioos:station:DISL:KATA:1,2011-11-06T05:00:00Z,30.2583,-88.2131,67.14,1111122 
DISL,ioos:station:DISL:KATA:1,2011-11-06T05:30:00Z,30.2583,-88.2131,65.85,1111122 
DISL,ioos:station:DISL:KATA:1,2011-11-06T06:00:00Z,30.2583,-88.2131,65.55,1111122 
DISL,ioos:station:DISL:KATA:1,2011-11-06T06:30:00Z,30.2583,-88.2131,68.91,1111122 
DISL,ioos:station:DISL:KATA:1,2011-11-06T07:00:00Z,30.2583,-88.2131,66.97,1111122 
DISL,ioos:station:DISL:KATA:1,2011-11-06T07:30:00Z,30.2583,-88.2131,71.39,1111122 
DISL,ioos:station:DISL:KATA:1,2011-11-06T08:00:00Z,30.2583,-88.2131,72.44,1111122 
DISL,ioos:station:DISL:KATA:1,2011-11-06T08:30:00Z,30.2583,-88.2131,72.07,1111122 
DISL,ioos:station:DISL:KATA:1,2011-11-06T09:00:00Z,30.2583,-88.2131,74.29,1111122 
DISL,ioos:station:DISL:KATA:1,2011-11-06T09:30:00Z,30.2583,-88.2131,72.36,1111122 
DISL,ioos:station:DISL:KATA:1,2011-11-06T10:00:00Z,30.2583,-88.2131,73.75,1111122 
DISL,ioos:station:DISL:KATA:1,2011-11-06T10:30:00Z,30.2583,-88.2131,74.94,1111122 
DISL,ioos:station:DISL:KATA:1,2011-11-06T11:00:00Z,30.2583,-88.2131,76.4,1111122 
DISL,ioos:station:DISL:KATA:1,2011-11-06T11:30:00Z,30.2583,-88.2131,76.16,1111122 
DISL,ioos:station:DISL:KATA:1,2011-11-06T12:00:00Z,30.2583,-88.2131,76.91,1111122 
DISL,ioos:station:DISL:KATA:1,2011-11-06T12:30:00Z,30.2583,-88.2131,76.16,1111122 
DISL,ioos:station:DISL:KATA:1,2011-11-06T13:00:00Z,30.2583,-88.2131,76.33,1111122 
DISL,ioos:station:DISL:KATA:1,2011-11-06T13:30:00Z,30.2583,-88.2131,75.96,1111122 
DISL,ioos:station:DISL:KATA:1,2011-11-06T14:00:00Z,30.2583,-88.2131,75.25,1111122 
DISL,ioos:station:DISL:KATA:1,2011-11-06T14:30:00Z,30.2583,-88.2131,70.22,1111122 
DISL,ioos:station:DISL:KATA:1,2011-11-06T15:00:00Z,30.2583,-88.2131,74.13,1111122 
DISL,ioos:station:DISL:KATA:1,2011-11-06T15:30:00Z,30.2583,-88.2131,71.61,1111122 
DISL,ioos:station:DISL:KATA:1,2011-11-06T16:00:00Z,30.2583,-88.2131,71.09,1111122 
DISL,ioos:station:DISL:KATA:1,2011-11-06T16:30:00Z,30.2583,-88.2131,67.04,1111122 
DISL,ioos:station:DISL:KATA:1,2011-11-06T17:00:00Z,30.2583,-88.2131,65.04,1111122 
DISL,ioos:station:DISL:KATA:1,2011-11-06T17:30:00Z,30.2583,-88.2131,66.7,1111122 
DISL,ioos:station:DISL:KATA:1,2011-11-06T18:00:00Z,30.2583,-88.2131,63.78,1111122 
DISL,ioos:station:DISL:KATA:1,2011-11-06T18:30:00Z,30.2583,-88.2131,65.88,1111122 
DISL,ioos:station:DISL:KATA:1,2011-11-06T19:00:00Z,30.2583,-88.2131,67.81,1111122 
DISL,ioos:station:DISL:KATA:1,2011-11-06T19:30:00Z,30.2583,-88.2131,71.68,1111122 
DISL,ioos:station:DISL:KATA:1,2011-11-06T20:00:00Z,30.2583,-88.2131,77.99,1111122 
DISL,ioos:station:DISL:KATA:1,2011-11-06T20:30:00Z,30.2583,-88.2131,78.84,1111122 
DISL,ioos:station:DISL:KATA:1,2011-11-06T21:00:00Z,30.2583,-88.2131,78.47,1111122 
DISL,ioos:station:DISL:KATA:1,2011-11-06T21:30:00Z,30.2583,-88.2131,78.5,1111122 
DISL,ioos:station:DISL:KATA:1,2011-11-06T22:00:00Z,30.2583,-88.2131,78.19,1111122 
DISL,ioos:station:DISL:KATA:1,2011-11-06T22:30:00Z,30.2583,-88.2131,78.94,1111122 
DISL,ioos:station:DISL:KATA:1,2011-11-06T23:00:00Z,30.2583,-88.2131,80.4,1111122 
DISL,ioos:station:DISL:KATA:1,2011-11-06T23:30:00Z,30.2583,-88.2131,80.8,1111122 
DISL,ioos:station:DISL:KATA:1,2011-11-07T00:00:00Z,30.2583,-88.2131,81.0,1111122 